[[{"header":{"parameterUnit":"m.s-1","parameterCategory":1,"la1":30.2991,"la2":30.254,"lo1":-89.0895,"lo2":-89.0444,"dy":0.0017,"dx":0.0017,"nx":28,"ny":28,"refTime":"2024-02-13T03:00:00:Z","depth":0,"parameterNumber":2,"parameterNumberName":"U-component_of_WINDS"},"data":[0,0,0,0,0,0,0,0,0,0,0,0,0,0,0,0,0,0,0,0,0,0,0,0,0,0,0,0,0,0,0,0,0,0,0,0,0,0,0,0,0,0,0,0,0,0,0,0,0,0,0,0,0,0,0,0,0,0,-1.1164,-1.1165,0,-1.1259,-1.126,-1.1261,-1.1206,-1.1204,-1.1201,-1.1198,-1.1302,-1.1307,-1.1312,0,0,0,0,0,0,0,0,0,0,0,0,0,-1.0939,-1.0943,-1.1164,-1.1165,-1.1166,-1.1259,-1.126,-1.1262,-1.1207,-1.1204,-1.12,-1.1197,-1.13,-1.1306,-1.1313,0,0,0,0,0,0,0,0,0,0,0,0,0,-1.1036,-1.0944,-1.1163,-1.115,-1.1149,-1.1259,-1.126,-1.1262,-1.1208,-1.1204,-1.1199,-1.1196,-1.1298,-1.1306,-1.1313,-1.1443,0,0,-1.1338,-1.1341,0,0,0,0,0,0,0,0,-1.103,-1.1044,-1.1151,-1.1151,-1.1151,-1.1217,-1.1219,-1.1323,-1.1209,-1.1186,-1.1198,-1.1194,-1.1277,-1.1286,-1.1313,-1.1448,-1.1452,-1.1338,-1.1343,-1.1346,-1.1349,0,0,0,0,0,0,0,-1.1024,-1.104,-1.1202,-1.1152,-1.1152,-1.114,-1.115,-1.1238,-1.1253,-1.1187,-1.1184,-1.1195,-1.1276,-1.1306,-1.1315,-1.1454,-1.1338,-1.1345,-1.135,-1.1353,-1.1701,-1.1705,0,0,0,0,0,0,-1.1017,-1.1034,-1.1198,-1.1204,-1.1079,-1.1148,-1.1158,-1.12,-1.1252,-1.1256,-1.1199,-1.1192,-1.1294,-1.1306,-1.1319,-1.1475,-1.1346,-1.1354,-1.1358,-1.1696,-1.1702,-1.1707,0,0,0,0,0,0,-1.1012,-1.1032,-1.1195,-1.1118,-1.1138,-1.1156,-1.1203,-1.1204,-1.1233,-1.126,-1.1263,-1.1226,-1.1292,-1.1308,-1.1412,-1.1478,-1.1357,-1.1365,-1.1691,-1.1698,-1.1704,-1.1789,0,0,0,0,0,0,-1.1006,-1.1031,-1.1079,-1.112,-1.1142,-1.1286,-1.1207,-1.1208,-1.1246,-1.1239,-1.1287,-1.1291,-1.129,-1.1401,-1.142,-1.1487,-1.1371,-1.1685,-1.1694,-1.1702,-1.178,-1.1798,-1.1812,0,0,0,0,0,-1.0998,-1.1101,-1.1082,-1.1102,-1.1203,-1.129,-1.1303,-1.1298,-1.1252,-1.1302,-1.1319,-1.1289,-1.1467,-1.1412,-1.1433,-1.1503,-1.1681,-1.1692,-1.1701,-1.1773,-1.1794,-1.1812,0,0,0,0,0,0,-1.107,-1.1106,-1.1086,-1.1203,-1.1244,-1.128,-1.1343,-1.132,-1.1376,-1.1367,-1.136,-1.1371,-1.1481,-1.1502,-1.144,-1.1632,-1.1567,-1.1582,-1.1614,-1.1635,-1.165,-1.1644,-1.1377,0,0,0,0,0,-1.1098,-1.1164,-1.1192,-1.1294,-1.1315,-1.1325,-1.1363,-1.1355,-1.1397,-1.1415,-1.144,-1.1483,-1.1549,-1.1592,-1.1654,-1.1782,-1.1793,-1.1841,-1.1857,-1.187,-1.1884,-1.1954,-1.1976,-1.174,-1.174,-1.174,0,0,-1.116,-1.1188,-1.123,-1.1309,-1.1339,-1.1409,-1.134,-1.1417,-1.1469,-1.1427,-1.1527,-1.1547,-1.1595,-1.1712,-1.1765,-1.1734,-1.1951,-1.1883,-1.1893,-1.19,-1.1967,-1.1989,-1.2009,-1.1747,-1.1745,-1.1744,0,0,-1.1308,-1.1335,-1.1423,-1.1454,-1.1499,-1.1506,-1.1527,-1.1566,-1.1578,-1.1677,-1.1647,-1.171,-1.1823,-1.1858,-1.1891,-1.2052,-1.2027,-1.2072,-1.2157,-1.2226,-1.2245,-1.2261,-1.232,-1.2341,-1.2085,-1.2085,-1.2085,0,-1.138,-1.1482,-1.1471,-1.155,-1.1586,-1.1549,-1.1639,-1.167,-1.1735,-1.1761,-1.1724,-1.1865,-1.1894,-1.202,-1.2059,-1.2086,-1.2112,-1.2068,-1.2242,-1.2259,-1.2274,-1.2331,-1.2353,-1.2091,-1.209,-1.2089,-1.2089,0,-1.1568,-1.164,-1.1705,-1.1767,-1.181,-1.1894,-1.1898,-1.1943,-1.1931,-1.1942,-1.2045,-1.2078,-1.2147,-1.2175,-1.2165,-1.23,-1.2279,-1.2242,-1.2178,-1.2302,-1.2355,-1.2377,-1.2098,-1.2096,-1.2095,-1.2093,0,0,-1.1767,-1.182,-1.1844,-1.1872,-1.1919,-1.1975,-1.2057,-1.2122,-1.2162,-1.2207,-1.2278,-1.2374,-1.234,-1.2377,-1.237,-1.243,-1.2557,-1.2386,-1.2387,-1.2419,-1.271,-1.2739,-1.2764,-1.254,-1.2544,-1.2547,-1.2707,0,-1.192,-1.2062,-1.2055,-1.219,-1.2256,-1.2221,-1.2293,-1.233,-1.2342,-1.2402,-1.2415,-1.2483,-1.2432,-1.2455,-1.2512,-1.253,-1.2616,-1.2518,-1.2608,-1.2612,-1.26,-1.2791,-1.2823,-1.2972,-1.2727,-1.273,-1.2733,0,-1.2118,-1.2168,-1.2309,-1.2346,-1.2374,-1.2439,-1.2498,-1.2554,-1.2596,-1.2601,-1.2642,-1.2625,-1.271,-1.2641,-1.2759,-1.2693,-1.2729,-1.2743,-1.2748,-1.2759,-1.2682,-1.281,-1.3019,-1.3042,-1.2765,-1.2762,-1.276,0,-1.2251,-1.2354,-1.2452,-1.2476,-1.2521,-1.2568,-1.2589,-1.2627,-1.2667,-1.2718,-1.2744,-1.2806,-1.284,-1.2889,-1.289,-1.2839,-1.3011,-1.2941,-1.3019,-1.3019,-1.3059,-1.3057,-1.3279,-1.3078,-1.3077,-1.3077,-1.3077,0,-1.2424,-1.2513,-1.2512,-1.2573,-1.2671,-1.2661,-1.2759,-1.2776,-1.281,-1.2874,-1.2846,-1.2908,-1.2904,-1.2967,-1.2968,-1.3067,-1.3082,-1.3089,-1.3089,-1.3093,-1.3093,-1.3119,-1.311,-1.3083,-1.3082,-1.308,-1.3079,0,-1.2591,-1.2594,-1.2699,-1.2732,-1.2742,-1.2814,-1.2843,-1.2901,-1.2909,-1.2991,-1.301,-1.3024,-1.3096,-1.31,-1.3184,-1.3185,-1.3305,-1.3293,-1.3291,-1.329,-1.3368,-1.3362,-1.3617,-1.3651,-1.3425,-1.3428,-1.3429,0,-1.2703,-1.277,-1.281,-1.285,-1.2873,-1.2939,-1.2978,-1.2971,-1.3014,-1.3066,-1.3119,-1.3187,-1.3242,-1.3359,-1.3378,-1.3442,-1.3432,-1.3517,-1.3442,-1.3444,-1.3436,-1.3433,-1.3441,-1.3533,-1.3536,-1.3538,-1.3539,0,-1.2901,-1.2899,-1.2956,-1.3015,-1.3062,-1.3108,-1.3151,-1.3186,-1.3184,-1.3233,-1.3306,-1.3348,-1.3432,-1.3502,-1.3564,-1.3588,-1.3565,-1.3562,-1.3584,-1.3591,-1.3588,-1.3592,-1.3334,-1.3557,-1.3555,-1.3554,-1.3553,-1.3552,-1.3046,-1.3104,-1.3141,-1.3206,-1.3237,-1.3277,-1.3333,-1.3347,-1.3407,-1.3474,-1.3466,-1.3547,-1.3588,-1.3668,-1.3697,-1.3761,-1.3732,-1.3763,-1.3772,-1.378,-1.3789,-1.3575,-1.3772,-1.3771,-1.3771,-1.377,-1.377,0,-1.3245,-1.3266,-1.3326,-1.3386,-1.3437,-1.3407,-1.3453,-1.3498,-1.3569,-1.3608,-1.3662,-1.3746,-1.3813,-1.3835,-1.3901,-1.3948,-1.3939,-1.3966,-1.3964,-1.397,-1.381,-1.3786,-1.3972,-1.3972,-1.3972,-1.3972,-1.3972,-1.3972,-1.3355,-1.3452,-1.3454,-1.3566,-1.3587,-1.3665,-1.3694,-1.3731,-1.3762,-1.3856,-1.3911,-1.3924,-1.3957,-1.4025,-1.4085,-1.409,-1.4117,-1.4149,-1.415,-1.4001,-1.3981,-1.3962,-1.3939,-1.4154,-1.4154,-1.4304,-1.4306,-1.4307]},{"header":{"parameterUnit":"m.s-1","parameterCategory":1,"la1":30.2991,"la2":30.254,"lo1":-89.0895,"lo2":-89.0444,"dy":0.0017,"dx":0.0017,"nx":28,"ny":28,"refTime":"2024-02-13T03:00:00:Z","depth":0,"parameterNumber":3,"parameterNumberName":"V-component_of_WINDS"},"data":[0,0,0,0,0,0,0,0,0,0,0,0,0,0,0,0,0,0,0,0,0,0,0,0,0,0,0,0,0,0,0,0,0,0,0,0,0,0,0,0,0,0,0,0,0,0,0,0,0,0,0,0,0,0,0,0,0,0,-2.9456,-2.9457,0,-2.9549,-2.955,-2.9551,-2.9521,-2.9519,-2.9517,-2.9515,-2.9608,-2.9612,-2.9616,0,0,0,0,0,0,0,0,0,0,0,0,0,-2.925,-2.9254,-2.9456,-2.9457,-2.9459,-2.9549,-2.955,-2.9552,-2.9521,-2.9519,-2.9517,-2.9514,-2.9607,-2.9612,-2.9617,0,0,0,0,0,0,0,0,0,0,0,0,0,-2.9341,-2.9255,-2.9456,-2.9455,-2.9455,-2.9549,-2.955,-2.9552,-2.9522,-2.9519,-2.9516,-2.9513,-2.9605,-2.9611,-2.9618,-2.9717,0,0,-2.9637,-2.964,0,0,0,0,0,0,0,0,-2.9336,-2.9349,-2.9454,-2.9455,-2.9456,-2.9521,-2.9512,-2.9607,-2.9523,-2.9497,-2.9515,-2.9512,-2.9581,-2.9589,-2.9613,-2.9722,-2.9726,-2.9638,-2.9642,-2.9645,-2.9647,0,0,0,0,0,0,0,-2.933,-2.9344,-2.9493,-2.9455,-2.9457,-2.9448,-2.9458,-2.953,-2.9554,-2.9499,-2.9497,-2.9508,-2.9581,-2.9607,-2.9615,-2.9727,-2.9638,-2.9644,-2.9648,-2.965,-2.9922,-2.9925,0,0,0,0,0,0,-2.9323,-2.9339,-2.949,-2.9496,-2.9387,-2.9454,-2.9465,-2.9503,-2.9554,-2.9559,-2.9511,-2.9506,-2.9598,-2.9608,-2.9618,-2.9739,-2.9645,-2.9651,-2.9654,-2.9918,-2.9923,-2.9926,0,0,0,0,0,0,-2.9319,-2.9337,-2.9486,-2.9417,-2.9436,-2.9461,-2.9504,-2.9506,-2.9532,-2.9563,-2.9567,-2.9533,-2.9596,-2.9609,-2.9693,-2.9741,-2.9654,-2.966,-2.9915,-2.992,-2.9924,-2.998,0,0,0,0,0,0,-2.9313,-2.9335,-2.9374,-2.9418,-2.9439,-2.9561,-2.9507,-2.951,-2.9544,-2.9539,-2.9585,-2.9589,-2.9594,-2.9684,-2.97,-2.9749,-2.9665,-2.991,-2.9917,-2.9923,-2.9974,-2.9986,-2.9997,0,0,0,0,0,-2.9306,-2.9386,-2.9376,-2.9395,-2.9489,-2.9563,-2.9575,-2.958,-2.9548,-2.9587,-2.9606,-2.9588,-2.9734,-2.9693,-2.971,-2.9762,-2.9907,-2.9915,-2.9922,-2.9969,-2.9984,-2.9997,0,0,0,0,0,0,-2.9346,-2.9391,-2.9382,-2.9479,-2.9517,-2.9558,-2.9607,-2.9596,-2.9644,-2.9638,-2.9641,-2.9652,-2.9738,-2.9758,-2.9712,-2.9861,-2.9815,-2.9827,-2.9845,-2.9859,-2.9871,-2.9864,-2.967,0,0,0,0,0,-2.9366,-2.9424,-2.946,-2.9542,-2.9562,-2.9582,-2.9614,-2.9615,-2.9655,-2.9671,-2.9697,-2.9735,-2.979,-2.9826,-2.9877,-2.9977,-2.9986,-3.0021,-3.0032,-3.0042,-3.0051,-3.0105,-3.0121,-2.9951,-2.9951,-2.995,0,0,-2.9409,-2.9441,-2.9477,-2.9551,-2.9581,-2.964,-2.9596,-2.966,-2.9703,-2.968,-2.9761,-2.9782,-2.9825,-2.9917,-2.9959,-2.9937,-3.01,-3.0051,-3.0058,-3.0063,-3.0114,-3.013,-3.0145,-2.9956,-2.9955,-2.9954,0,0,-2.9516,-2.9546,-2.9618,-2.9649,-2.9695,-2.9708,-2.9725,-2.9768,-2.978,-2.9862,-2.9846,-2.9897,-2.9991,-3.0023,-3.0051,-3.017,-3.0155,-3.0187,-3.0246,-3.0299,-3.0312,-3.0324,-3.0366,-3.0381,-3.0196,-3.0196,-3.0197,0,-2.9562,-2.9651,-2.9656,-2.9722,-2.9755,-2.9737,-2.9809,-2.9839,-2.99,-2.9923,-2.9897,-3.0015,-3.0043,-3.0142,-3.0171,-3.0194,-3.0213,-3.0182,-3.031,-3.0322,-3.0333,-3.0373,-3.0389,-3.02,-3.02,-3.0199,-3.0199,0,-2.9706,-2.9768,-2.982,-2.988,-2.9919,-2.9988,-3.0002,-3.004,-3.0037,-3.0052,-3.0135,-3.0168,-3.0226,-3.0249,-3.0247,-3.0348,-3.0333,-3.0309,-3.0263,-3.0353,-3.0391,-3.0406,-3.0205,-3.0204,-3.0203,-3.0202,0,0,-2.9842,-2.9903,-2.9922,-2.9949,-2.9999,-3.0047,-3.0114,-3.0172,-3.0205,-3.0247,-3.0303,-3.0383,-3.0361,-3.0393,-3.0394,-3.044,-3.0532,-3.041,-3.0411,-3.0431,-3.0645,-3.0663,-3.0681,-3.0522,-3.0525,-3.0527,-3.0641,0,-2.9953,-3.0073,-3.0079,-3.0187,-3.0244,-3.0228,-3.0286,-3.0323,-3.0338,-3.0388,-3.0405,-3.0461,-3.0428,-3.0447,-3.0492,-3.0511,-3.0575,-3.0503,-3.0573,-3.0576,-3.0563,-3.0701,-3.072,-3.0826,-3.0656,-3.0659,-3.066,0,-3.0099,-3.0147,-3.0262,-3.0303,-3.0327,-3.038,-3.0433,-3.0481,-3.0522,-3.053,-3.0566,-3.056,-3.0628,-3.058,-3.0673,-3.0624,-3.0653,-3.0667,-3.0671,-3.0678,-3.0624,-3.0711,-3.086,-3.0876,-3.0684,-3.0682,-3.068,0,-3.0187,-3.0279,-3.036,-3.0383,-3.0434,-3.0471,-3.0494,-3.0532,-3.0566,-3.0612,-3.0634,-3.0687,-3.0716,-3.0757,-3.0765,-3.0729,-3.0859,-3.0811,-3.0867,-3.0866,-3.0895,-3.0893,-3.105,-3.0913,-3.0913,-3.0913,-3.0912,0,-3.0311,-3.0381,-3.04,-3.0449,-3.0528,-3.0533,-3.061,-3.063,-3.0664,-3.0716,-3.0705,-3.0754,-3.0762,-3.0813,-3.0819,-3.0895,-3.0908,-3.0916,-3.0917,-3.0917,-3.0916,-3.0936,-3.0929,-3.0917,-3.0916,-3.0915,-3.0915,0,-3.0422,-3.0437,-3.0524,-3.0565,-3.0576,-3.0632,-3.0667,-3.0714,-3.0728,-3.0794,-3.081,-3.0832,-3.0891,-3.0903,-3.0973,-3.0977,-3.1068,-3.1061,-3.1054,-3.1054,-3.1108,-3.1103,-3.1284,-3.1308,-3.1156,-3.1157,-3.1158,0,-3.05,-3.0554,-3.0601,-3.0636,-3.066,-3.0716,-3.0751,-3.0758,-3.0795,-3.0845,-3.0886,-3.0944,-3.0991,-3.1086,-3.1107,-3.116,-3.1155,-3.1215,-3.1163,-3.1161,-3.1156,-3.1153,-3.1158,-3.1225,-3.1226,-3.1228,-3.1229,0,-3.0637,-3.0642,-3.0693,-3.0748,-3.079,-3.0833,-3.0873,-3.0902,-3.0914,-3.0956,-3.1017,-3.1053,-3.1125,-3.1182,-3.1235,-3.1257,-3.1245,-3.1245,-3.1261,-3.1262,-3.1255,-3.1259,-3.1082,-3.1241,-3.124,-3.1239,-3.1238,-3.1238,-3.0734,-3.0781,-3.0822,-3.0879,-3.0911,-3.0949,-3.0995,-3.1015,-3.1066,-3.1125,-3.1126,-3.1192,-3.1231,-3.1301,-3.1326,-3.1378,-3.1359,-3.1381,-3.1387,-3.1393,-3.1398,-3.1247,-3.1387,-3.1387,-3.1387,-3.1386,-3.1386,0,-3.0871,-3.0896,-3.0949,-3.1006,-3.1051,-3.1037,-3.1081,-3.1119,-3.1178,-3.1215,-3.1262,-3.1331,-3.1387,-3.1413,-3.1467,-3.1503,-3.1499,-3.1518,-3.1515,-3.152,-3.1412,-3.1393,-3.152,-3.152,-3.152,-3.152,-3.152,-3.152,-3.0947,-3.1026,-3.1036,-3.113,-3.1154,-3.122,-3.1246,-3.1281,-3.1311,-3.1389,-3.1436,-3.1453,-3.1485,-3.1542,-3.1592,-3.1598,-3.1619,-3.164,-3.1643,-3.1541,-3.1528,-3.1515,-3.1497,-3.1644,-3.1645,-3.1748,-3.1749,-3.1749]}]]